Regional Weather Roundup
Issued by NWS

Home | Current Version | Previous Version | Text Only | Print | Product List | Glossary Off
Versions: 1 2 3 4 5 6 7 8 9 10 11 12 13 14 15 16 17 18 19 20 21 22 23 24 25 26 27 28 29 30 31 32 33 34 35 36 37 38 39 40 41 42 43 44 45 46 47 48 49 50

000
ASUS43 KDTX 181110
RWRMI
MICHIGAN HOURLY REGIONAL WEATHER ROUNDUP
NATIONAL WEATHER SERVICE DETROIT/PONTIAC MI
700 AM EDT WED OCT 18 2017

NOTE: "FAIR" INDICATES FEW OR NO CLOUDS BELOW 12,000 FEET WITH NO
SIGNIFICANT WEATHER AND/OR OBSTRUCTION TO VISIBILITY.

MIZ047>049-052>055-059>063-066>070-074>076-081>083-181200-
SOUTHEAST LOWER MICHIGAN

CITY           SKY/WX    TMP DP  RH WIND       PRES   REMARKS
ADRIAN         CLEAR     43  38  82 SW6       30.26R
ALMA           CLEAR     45  39  80 SW6       30.17R
ANN ARBOR      CLEAR     36  36 100 CALM      30.24R
BAD AXE        CLEAR     49  40  69 SW6       30.18R
CARO           CLEAR     47  39  72 S6        30.18R
DETROIT CITY   CLEAR     49  41  74 SW7       30.25R
DETROIT        CLEAR     45  40  82 S7        30.26R
FLINT          CLEAR     50  40  68 SW9       30.21R
GROSSE ILE     CLEAR     49  41  72 SW5       30.25R
HILLSDALE      CLEAR     45  37  76 S5        30.24R
HOWELL         CLEAR     47  40  76 S5        30.21S

CITY           SKY/WX    TMP DP  RH WIND       PRES   REMARKS
JACKSON        CLEAR     48  39  71 S8        30.23R
LAMBERTVILLE   CLEAR     46  40  79 S3        30.26R
LANSING        CLEAR     49  39  68 S7        30.20S
LAPEER         FAIR      42  40  92 CALM      30.21S
MASON          CLEAR     50  40  68 CALM      30.22R
MONROE         CLEAR     43  39  85 S3        30.26R
MT. CLEMENS    CLEAR     46  41  84 S7        30.22R
PONTIAC        CLEAR     47  41  80 S3        30.22R
PORT HOPE        N/A     53  41  63 SW8       30.14R
PORT HURON     PTCLDY    48  41  76 S5        30.22S
TRI CITIES     CLEAR     50  42  74 S8        30.18R
MIDLAND        FAIR      46  41  82 CALM      30.16R
TROY           CLEAR     46  41  82 SW5       30.25S
SAGINAW HB     CLEAR     46  41  81 S8        30.17S
$$
MIZ043>046-050>051-056>058-064>065-071>073-077>080-181200-
SOUTHWEST LOWER MICHIGAN

CITY           SKY/WX    TMP DP  RH WIND       PRES   REMARKS
BATTLE CREEK   CLEAR     47  41  80 S9        30.22R
BENTON HARBOR  CLEAR     50  39  66 S7        30.19S
BIG RAPIDS     CLEAR     48  45  88 S3        30.14R
COLDWATER      CLEAR     47  38  72 CALM      30.24R
FREMONT        FAIR      47  47 100 S5        30.14R
HOLLAND        CLEAR     48  41  76 S8        30.17S
GRAND RAPIDS   CLEAR     51  41  68 S10       30.17S
IONIA          FAIR      48  39  72 S7        30.17S
KALAMAZOO      CLEAR     47  39  74 S6        30.22R
LUDINGTON      CLEAR     57  49  75 S10       30.09S
MARSHALL       CLEAR     47  39  75 S3        30.23R
MOUNT PLEASANT CLEAR     52  43  72 SW5       30.14S
MUSKEGON       CLEAR     59  49  69 SW16      30.14S
SOUTH HAVEN    CLEAR     49  40  71 S6        30.19S
$$
MIZ016>042-181200-
NORTHERN LOWER MICHIGAN

CITY           SKY/WX    TMP DP  RH WIND       PRES   REMARKS
ALPENA         CLEAR     49  46  90 S5        30.09S
BEAVER ISLAND  CLEAR     58  52  79 SW10G17   30.01R
BELLAIRE       CLEAR     49  45  87 CALM      30.07R
CADILLAC       CLEAR     52  46  79 SW9       30.10S
CHARLEVOIX     CLEAR     55  48  78 S10G16    30.07R
FRANKFORT      CLEAR     58  49  73 S7        30.07R
GAYLORD        CLEAR     50  43  77 SW9       30.08R
GRAYLING       CLEAR     49  43  80 S3        30.11R
HARBOR SPRINGS CLEAR     54  46  74 SE3       30.04S
HOUGHTON LAKE  CLEAR     51  46  83 S6        30.12R
MANISTEE       CLEAR     46  45  96 NE3       30.08S
OSCODA         CLEAR     48  42  79 SW9       30.12S
PELLSTON       CLEAR     50  46  86 SE7       30.04S
ROGERS CITY    CLEAR     49  44  84 SW7       30.07R
TRAVERSE CITY  CLEAR     56  46  69 SW9       30.06R
$$
MIZ007>008-015-181200-
EASTERN UPPER MICHIGAN

CITY           SKY/WX    TMP DP  RH WIND       PRES   REMARKS
KINROSS        CLEAR     46  45  96 S7        30.02S
MACKINAC ISLAN CLEAR     54  48  80 S9        30.02S
NEWBERRY       CLEAR     53  52  97 S10       29.97S
S. S. MARIE    FOG       46  45  96 E3        30.01S VSB 1/4
MUNISING         N/A     52  48  86 SW12      29.93R
$$
MIZ004>006-011>014-085-181200-
CENTRAL UPPER MICHIGAN

CITY           SKY/WX    TMP DP  RH WIND       PRES   REMARKS
MANISTIQUE     CLEAR     55  49  81 S7        29.98S
ESCANABA       CLEAR     50  45  83 SW8       29.97R
MENOMINEE      CLEAR     53  44  71 SW7       30.00R
SAWYER-GWINN   CLEAR     43  41  93 S7        29.93S
$$
MIZ001>003-009>011-084-181200-
WESTERN UPPER MICHIGAN

CITY           SKY/WX    TMP DP  RH WIND       PRES   REMARKS
IRON MOUNTAIN  CLEAR     45  40  82 SE7       29.94S
HOUGHTON       CLEAR     50  43  77 S3        29.83F
COPPER HARBOR    N/A     56  44  64 SW15G24   29.81F
IRONWOOD       CLEAR     53  43  68 SW8       29.86F
$$

ABBREVIATIONS USED IN REMARKS
   TC - TEMPERATURE IN CELSIUS
  WCI - WIND CHILL INDEX
   HX - HEAT INDEX
  VSB - VISIBILITY




USA.gov is the U.S. government's official web portal to all federal, state and local government web resources and services.